Location: Cadeilhan
(42.8161°N, 0.3161°E)
Time: 08:40:16
(UTC+00:00)

Cosmos 2237 Rocket - Pass Details

Date: 18 February 2020
Orbit: 835 x 849 km, 71.0° (Epoch: 03 April)

Event Time Altitude Azimuth Distance (km) Brightness Sun altitude
Exits shadow 05:31:00 10° 320° (NW) 2,436 4.2 -15.6°
Maximum altitude 05:31:02 10° 321° (NW) 2,436 4.2 -15.6°
Drops below altitude 10° 05:31:48 10° 329° (NNW) 2,455 4.3 -15.5°
Sets 05:37:08 0° 11° (N) 3,394 5.4 -14.5°
